QPF
0.00 0.00 0.00 0.00 0.00 0.00 0.00 0.00 0.00 0.00 0.00 0.00 0.00 0.00 0.00 0.00 0.00 0.00 0.00 0.00 0.00 0.00 0.00 0.00 0.00 0.00 0.00 0.00 0.00 0.00 0.00 0.00 0.00 0.00 0.00 0.01 0.01 0.01
0.00 0.00 0.00 0.00 0.00 0.00 0.00 0.00 0.00 0.00 0.00 0.00 0.00 0.00 0.00 0.00 0.00 0.00 0.00 0.00 0.00 0.00 0.00 0.00 0.00 0.00 0.00 0.00 0.00 0.00 0.00 0.00 0.00 0.00 0.00 0.00 0.01 0.01
0.00 0.00 0.00 0.00 0.00 0.00 0.00 0.00 0.00 0.00 0.00 0.00 0.00 0.00 0.00 0.00 0.00 0.00 0.00 0.00 0.00 0.00 0.00 0.00 0.00 0.00 0.00 0.00 0.00 0.00 0.00 0.00 0.00 0.00 0.00 0.01 0.00 0.01
0.00 0.00 0.00 0.00 0.00 0.00 0.00 0.00 0.00 0.00 0.00 0.00 0.00 0.00 0.00 0.00 0.00 0.00 0.00 0.00 0.00 0.00 0.00 0.00 0.00 0.00 0.00 0.00 0.00 0.00 0.00 0.00 0.00 0.00 0.00 0.00 0.00 0.00
0.00 0.00 0.00 0.00 0.00 0.00 0.00 0.00 0.00 0.00 0.00 0.00 0.00 0.00 0.00 0.00 0.00 0.00 0.00 0.00 0.00 0.00 0.00 0.00 0.00 0.00 0.00 0.00 0.00 0.00 0.00 0.00 0.00 0.00 0.00 0.00 0.00 0.00
0.00 0.00 0.00 0.00 0.00 0.00 0.00 0.00 0.00 0.00 0.00 0.00 0.00 0.00 0.00 0.00 0.00 0.00 0.00 0.00 0.00 0.00 0.00 0.00 0.00 0.00 0.00 0.00 0.00 0.00 0.00 0.00 0.00 0.00 0.00 0.00 0.00 0.00
0.00 0.00 0.00 0.00 0.00 0.00 0.00 0.00 0.00 0.00 0.00 0.00 0.00 0.00 0.00 0.00 0.00 0.00 0.00 0.00 0.00 0.00 0.00 0.00 0.00 0.00 0.00 0.00 0.00 0.00 0.00 0.00 0.00 0.00 0.00 0.00 0.00 0.00
0.00 0.00 0.00 0.00 0.00 0.00 0.00 0.00 0.00 0.00 0.00 0.00 0.00 0.00 0.00 0.00 0.00 0.00 0.00 0.00 0.00 0.00 0.00 0.00 0.00 0.00 0.00 0.00 0.00 0.00 0.00 0.00 0.00 0.00 0.00 0.00 0.00 0.00
0.00 0.00 0.00 0.00 0.00 0.00 0.00 0.00 0.00 0.00 0.00 0.00 0.00 0.00 0.00 0.00 0.00 0.00 0.00 0.00 0.00 0.00 0.00 0.00 0.00 0.00 0.00 0.00 0.00 0.00 0.00 0.00 0.00 0.00 0.00 0.00 0.00 0.00
0.00 0.00 0.00 0.00 0.00 0.00 0.00 0.00 0.00 0.00 0.00 0.00 0.00 0.00 0.00 0.00 0.00 0.00 0.00 0.00 0.00 0.00 0.00 0.00 0.00 0.00 0.00 0.00 0.00 0.00 0.00 0.00 0.00 0.00 0.00 0.00 0.00 0.00
0.00 0.00 0.00 0.00 0.00 0.00 0.00 0.00 0.00 0.00 0.00 0.00 0.00 0.00 0.00 0.00 0.00 0.00 0.00 0.00 0.00 0.00 0.00 0.00 0.00 0.00 0.00 0.00 0.00 0.00 0.00 0.00 0.00 0.00 0.00 0.00 0.00 0.00
0.00 0.00 0.00 0.00 0.00 0.00 0.00 0.00 0.00 0.00 0.00 0.00 0.00 0.00 0.00 0.00 0.00 0.00 0.00 0.00 0.00 0.00 0.00 0.00 0.00 0.00 0.00 0.00 0.00 0.00 0.00 0.00 0.00 0.00 0.00 0.00 0.00 0.00
0.00 0.00 0.00 0.00 0.00 0.00 0.00 0.00 0.00 0.00 0.00 0.00 0.00 0.00 0.00 0.00 0.00 0.00 0.00 0.00 0.00 0.00 0.00 0.00 0.00 0.00 0.00 0.00 0.00 0.00 0.00 0.00 0.00 0.00 0.00 0.00 0.00 0.00
0.00 0.00 0.00 0.00 0.00 0.00 0.00 0.00 0.00 0.00 0.00 0.00 0.00 0.00 0.00 0.00 0.00 0.00 0.00 0.00 0.00 0.00 0.00 0.00 0.00 0.00 0.00 0.00 0.00 0.00 0.00 0.00 0.00 0.00 0.00 0.00 0.00 0.00
0.00 0.00 0.00 0.00 0.00 0.00 0.00 0.00 0.00 0.00 0.00 0.00 0.00 0.00 0.00 0.00 0.00 0.00 0.00 0.00 0.00 0.00 0.00 0.00 0.00 0.00 0.00 0.00 0.00 0.00 0.00 0.00 0.00 0.00 0.00 0.00 0.00 0.00
0.00 0.00 0.00 0.00 0.00 0.00 0.00 0.00 0.00 0.00 0.00 0.00 0.00 0.00 0.00 0.00 0.00 0.00 0.00 0.00 0.00 0.00 0.00 0.00 0.00 0.00 0.01 0.00 0.00 0.00 0.00 0.00 0.00 0.00 0.00 0.00 0.00 0.00
0.00 0.00 0.00 0.00 0.00 0.00 0.00 0.00 0.00 0.00 0.00 0.00 0.00 0.00 0.00 0.00 0.00 0.00 0.00 0.00 0.00 0.00 0.00 0.00 0.00 0.00 0.00 0.00 0.00 0.00 0.00 0.00 0.00 0.00 0.00 0.00 0.00 0.00
0.00 0.00 0.00 0.00 0.00 0.00 0.00 0.00 0.00 0.00 0.00 0.00 0.00 0.00 0.00 0.00 0.00 0.00 0.00 0.00 0.00 0.00 0.00 0.00 0.00 0.00 0.00 0.00 0.00 0.00 0.00 0.00 0.00 0.00 0.00 0.00 0.00 0.00
0.00 0.00 0.00 0.00 0.00 0.00 0.00 0.00 0.00 0.00 0.00 0.00 0.00 0.00 0.00 0.00 0.00 0.00 0.00 0.01 0.01 0.01 0.00 0.00 0.00 0.00 0.01 0.01 0.00 0.00 0.00 0.00 0.00 0.00 0.00 0.00 0.00 0.00
0.00 0.00 0.00 0.00 0.00 0.00 0.00 0.00 0.00 0.00 0.00 0.00 0.00 0.00 0.00 0.00 0.00 0.00 0.00 0.00 0.00 0.00 0.00 0.00 0.00 0.00 0.01 0.00 0.00 0.00 0.00 0.00 0.00 0.00 0.00 0.00 0.00 0.00
0.00 0.00 0.00 0.00 0.00 0.00 0.00 0.00 0.00 0.00 0.00 0.00 0.00 0.00 0.00 0.00 0.00 0.00 0.00 0.00 0.01 0.01 0.01 0.00 0.00 0.00 0.00 0.03 0.04 0.01 0.00 0.00 0.00 0.00 0.00 0.01 0.01 0.01
0.00 0.00 0.00 0.00 0.00 0.00 0.00 0.00 0.00 0.00 0.00 0.00 0.00 0.00 0.00 0.00 0.00 0.00 0.01 0.01 0.00 0.00 0.00 0.00 0.00 0.00 0.02 0.06 0.03 0.00 0.00 0.00 0.00 0.00 0.00 0.01 0.02 0.01
0.00 0.00 0.00 0.00 0.00 0.00 0.00 0.00 0.00 0.00 0.00 0.00 0.00 0.00 0.00 0.00 0.00 0.00 0.00 0.00 0.01 0.01 0.00 0.00 0.00 0.01 0.02 0.02 0.02 0.01 0.00 0.00 0.00 0.00 0.00 0.00 0.01 0.02
MSLP
1018.04 1018.20 1018.31 1018.17 1018.18 1018.33 1018.55 1018.76 1019.01 1019.34 1018.94 1018.24 1018.02 1017.61 1017.49 1017.21 1017.04 1017.09 1017.07 1016.85 1016.50 1016.22 1016.12 1015.89 1015.85 1015.96 1015.83 1015.83 1015.70 1015.70 1015.42 1015.25 1015.22 1015.02 1014.85 1014.67 1014.45 1014.44
1017.99 1017.98 1017.94 1017.86 1017.92 1018.07 1018.23 1018.42 1018.65 1018.93 1019.11 1018.34 1018.07 1017.85 1017.65 1017.56 1017.37 1017.09 1016.69 1016.33 1016.20 1015.89 1015.64 1015.62 1015.62 1015.63 1015.70 1015.60 1015.40 1015.19 1015.21 1015.35 1015.28 1015.02 1014.56 1014.30 1014.15 1014.08
1017.69 1017.81 1017.75 1017.66 1017.66 1017.70 1017.85 1018.08 1018.34 1018.56 1018.75 1018.36 1018.06 1017.71 1017.58 1017.46 1017.34 1017.28 1017.03 1016.77 1016.42 1015.92 1015.52 1015.30 1015.20 1015.03 1015.08 1015.18 1015.21 1015.32 1015.41 1015.20 1014.94 1014.71 1014.45 1014.22 1013.98 1013.94
1017.51 1017.60 1017.53 1017.50 1017.61 1017.61 1017.66 1017.75 1017.83 1017.91 1018.25 1018.17 1017.90 1017.70 1017.47 1017.17 1017.10 1016.94 1016.46 1016.11 1016.01 1015.68 1015.40 1015.25 1015.16 1015.17 1015.22 1015.16 1015.12 1015.08 1014.98 1014.84 1014.73 1014.66 1014.53 1014.34 1014.02 1013.82
1017.27 1017.27 1017.20 1017.23 1017.29 1017.26 1017.31 1017.47 1017.45 1017.32 1017.54 1017.65 1017.60 1017.40 1017.12 1016.93 1016.77 1016.50 1016.29 1016.10 1015.79 1015.36 1015.05 1014.85 1014.79 1014.78 1014.76 1014.78 1014.90 1014.97 1014.91 1014.81 1014.64 1014.48 1014.35 1014.22 1014.05 1013.84
1016.57 1016.62 1016.70 1016.87 1016.94 1016.92 1016.92 1016.92 1016.93 1017.03 1017.12 1017.16 1017.19 1017.16 1016.99 1016.65 1016.57 1016.60 1016.43 1016.09 1015.70 1015.19 1014.97 1014.77 1014.73 1014.71 1014.61 1014.54 1014.53 1014.52 1014.54 1014.49 1014.36 1014.20 1014.04 1013.91 1013.72 1013.65
1016.05 1016.01 1015.93 1015.90 1016.02 1016.24 1016.40 1016.40 1016.54 1016.62 1016.76 1016.89 1016.88 1016.82 1016.73 1016.66 1016.57 1016.35 1016.28 1016.05 1015.72 1015.58 1015.37 1015.08 1014.89 1014.77 1014.65 1014.40 1014.32 1014.13 1013.94 1013.75 1013.67 1013.59 1013.50 1013.45 1013.40 1013.36
1015.51 1015.48 1015.51 1015.45 1015.32 1015.25 1015.26 1015.37 1015.68 1015.79 1016.00 1016.29 1016.33 1016.36 1016.24 1016.20 1016.19 1016.19 1016.20 1016.26 1016.06 1015.54 1015.57 1015.25 1014.96 1014.76 1014.61 1014.39 1014.06 1013.71 1013.45 1013.29 1013.21 1013.11 1013.06 1013.00 1013.03 1013.06
1014.83 1014.78 1014.83 1014.71 1014.74 1014.71 1014.72 1014.70 1014.79 1014.83 1014.84 1015.09 1015.35 1015.46 1015.55 1015.50 1015.61 1015.76 1015.88 1015.91 1015.94 1015.43 1015.51 1015.07 1014.74 1014.60 1014.26 1014.04 1013.73 1013.39 1013.16 1012.99 1012.83 1012.72 1012.71 1012.74 1012.75 1012.75
1014.21 1014.07 1014.05 1013.96 1013.99 1014.08 1014.10 1014.22 1014.21 1014.24 1014.25 1014.32 1014.32 1014.27 1014.34 1014.62 1014.87 1015.02 1015.15 1015.24 1015.00 1014.82 1015.08 1015.13 1014.57 1014.21 1013.71 1013.46 1013.07 1012.92 1012.73 1012.62 1012.54 1012.49 1012.46 1012.46 1012.48 1012.52
1013.45 1013.38 1013.31 1013.20 1013.15 1013.26 1013.41 1013.52 1013.53 1013.46 1013.38 1013.36 1013.41 1013.44 1013.50 1013.62 1013.95 1014.42 1014.72 1014.88 1014.76 1014.53 1014.50 1014.60 1014.24 1013.99 1013.60 1013.18 1012.89 1012.74 1012.56 1012.52 1012.52 1012.50 1012.41 1012.38 1012.40 1012.38
1013.25 1012.95 1012.76 1012.56 1012.50 1012.48 1012.66 1012.85 1012.98 1012.78 1012.82 1012.91 1012.98 1012.92 1013.00 1013.25 1013.22 1013.53 1014.03 1014.51 1014.74 1014.53 1014.10 1014.47 1014.24 1014.36 1013.97 1013.21 1013.07 1012.86 1012.75 1012.67 1012.58 1012.54 1012.47 1012.40 1012.33 1012.34
1012.63 1012.33 1011.94 1011.81 1011.66 1011.55 1011.67 1012.04 1012.06 1012.04 1012.17 1012.28 1012.43 1012.63 1012.90 1013.02 1013.07 1013.14 1013.36 1013.68 1013.83 1013.77 1013.60 1013.76 1013.84 1014.08 1014.18 1013.71 1013.11 1012.79 1012.66 1012.53 1012.47 1012.40 1012.30 1012.23 1012.04 1011.89
1011.85 1011.64 1011.28 1011.17 1011.12 1010.99 1010.98 1011.26 1011.40 1011.44 1011.63 1011.94 1012.08 1012.21 1012.36 1012.60 1012.46 1012.56 1012.57 1012.71 1012.67 1012.63 1012.82 1013.13 1013.23 1013.25 1013.35 1013.09 1012.81 1012.56 1012.19 1011.96 1012.04 1012.07 1011.98 1011.70 1011.54 1011.45
1011.03 1010.91 1010.65 1010.44 1010.35 1010.25 1010.32 1010.52 1010.78 1011.07 1011.41 1011.73 1011.81 1011.67 1011.75 1011.62 1011.74 1012.06 1012.27 1012.19 1012.15 1012.12 1012.01 1012.28 1012.51 1012.42 1012.49 1012.29 1012.12 1011.85 1011.76 1011.24 1011.12 1011.21 1011.34 1011.36 1011.34 1011.24
1010.32 1010.21 1010.11 1010.04 1010.04 1009.84 1009.86 1010.14 1010.48 1010.82 1011.20 1011.24 1011.28 1011.25 1011.19 1011.37 1011.54 1011.64 1011.89 1012.01 1011.91 1011.41 1011.13 1011.20 1011.40 1011.80 1011.59 1011.37 1011.27 1010.88 1010.88 1010.88 1010.33 1010.28 1010.61 1010.60 1010.50 1010.34
1009.66 1009.81 1009.83 1009.76 1009.65 1009.53 1009.62 1010.04 1010.36 1010.56 1010.86 1011.00 1010.88 1010.97 1011.04 1011.18 1011.12 1011.12 1011.12 1011.22 1011.33 1010.96 1010.73 1010.65 1010.63 1010.89 1010.83 1010.71 1010.40 1009.85 1009.79 1009.92 1009.80 1009.78 1010.02 1009.79 1009.28 1009.19
1008.71 1008.81 1008.74 1008.67 1008.76 1008.68 1008.91 1009.28 1009.69 1009.49 1009.60 1010.00 1010.27 1010.27 1010.34 1010.51 1010.56 1010.61 1010.52 1010.46 1010.43 1010.32 1010.23 1010.43 1010.68 1010.63 1010.42 1009.66 1009.51 1008.92 1008.85 1008.84 1008.83 1008.95 1008.90 1008.86 1008.20 1008.04
1007.97 1008.00 1007.92 1007.85 1007.90 1008.03 1008.08 1008.16 1008.30 1008.20 1008.31 1008.94 1009.31 1009.40 1009.49 1009.65 1009.90 1009.65 1009.55 1009.55 1009.39 1009.32 1009.37 1009.54 1009.73 1009.59 1009.47 1008.60 1007.51 1007.71 1007.89 1007.81 1007.81 1007.97 1008.04 1007.79 1007.35 1007.10
1007.33 1007.30 1007.28 1007.21 1007.30 1007.33 1007.33 1007.37 1007.48 1007.67 1007.94 1008.15 1008.32 1008.42 1008.57 1008.83 1008.83 1008.88 1008.74 1008.72 1008.63 1008.61 1008.70 1008.63 1008.43 1008.40 1008.28 1007.62 1007.03 1006.60 1006.63 1006.68 1006.90 1006.76 1006.71 1006.46 1006.23 1006.14
1007.08 1006.93 1006.80 1006.64 1006.53 1006.51 1006.60 1006.78 1006.92 1007.05 1007.20 1007.30 1007.45 1007.68 1007.87 1008.07 1007.87 1007.90 1007.77 1007.56 1007.66 1007.80 1007.57 1007.21 1007.08 1007.00 1006.80 1006.87 1006.44 1005.73 1005.04 1005.37 1005.56 1005.59 1005.45 1005.44 1005.20 1005.24
1006.49 1006.36 1006.17 1005.96 1005.85 1005.80 1005.80 1006.04 1006.26 1006.42 1006.48 1006.56 1006.71 1006.81 1006.95 1007.06 1006.91 1006.88 1006.77 1006.63 1006.65 1006.50 1006.11 1005.92 1005.92 1006.20 1006.13 1005.87 1005.21 1004.80 1004.39 1004.37 1004.26 1003.98 1004.04 1004.13 1004.18 1003.90
1005.89 1005.76 1005.55 1005.38 1005.23 1005.28 1005.37 1005.48 1005.52 1005.52 1005.55 1005.64 1005.74 1005.84 1005.89 1005.92 1005.83 1005.69 1005.64 1005.58 1005.56 1005.44 1005.30 1005.12 1005.07 1005.08 1004.81 1004.68 1004.31 1003.96 1003.84 1003.68 1003.56 1003.45 1002.97 1002.58 1002.49 1002.46
Thickness
5534 5532 5531 5531 5530 5528 5525 5523 5521 5519 5521 5526 5526 5530 5531 5534 5536 5536 5539 5541 5543 5546 5547 5551 5553 5554 5557 5558 5560 5561 5565 5568 5569 5571 5573 5576 5579 5580
5525 5525 5526 5526 5525 5524 5522 5519 5517 5514 5512 5517 5519 5520 5521 5521 5524 5527 5531 5534 5536 5539 5543 5544 5544 5545 5546 5548 5551 5555 5556 5555 5556 5559 5564 5567 5570 5572
5517 5515 5515 5516 5516 5516 5515 5513 5511 5509 5507 5508 5509 5513 5513 5514 5514 5515 5517 5518 5522 5526 5529 5533 5535 5538 5539 5539 5539 5539 5540 5543 5546 5549 5553 5556 5560 5561
5507 5506 5506 5506 5504 5503 5503 5504 5503 5502 5500 5500 5500 5502 5504 5507 5508 5509 5512 5514 5515 5517 5518 5519 5520 5521 5522 5524 5526 5527 5530 5532 5534 5537 5539 5542 5546 5550
5494 5493 5492 5492 5491 5491 5491 5490 5490 5493 5491 5490 5490 5491 5492 5494 5496 5498 5501 5503 5505 5507 5509 5510 5511 5511 5513 5514 5515 5516 5518 5520 5522 5524 5527 5530 5533 5537
5482 5481 5479 5476 5474 5475 5475 5475 5476 5475 5476 5476 5477 5477 5479 5482 5482 5481 5482 5486 5489 5494 5497 5497 5497 5497 5499 5501 5503 5505 5506 5507 5510 5513 5516 5519 5523 5526
5467 5466 5466 5466 5464 5461 5459 5458 5458 5456 5456 5457 5458 5460 5461 5463 5466 5468 5467 5468 5470 5472 5474 5477 5480 5480 5482 5484 5487 5490 5493 5496 5498 5501 5504 5507 5510 5513
5451 5449 5448 5449 5450 5450 5449 5447 5443 5440 5439 5438 5439 5439 5441 5441 5444 5447 5447 5447 5450 5451 5452 5453 5457 5458 5462 5465 5469 5473 5477 5479 5482 5485 5488 5491 5494 5497
5436 5435 5433 5433 5433 5432 5432 5432 5430 5430 5429 5425 5425 5423 5423 5422 5425 5423 5424 5426 5427 5430 5432 5436 5435 5435 5439 5443 5448 5452 5456 5459 5462 5465 5468 5471 5475 5478
5419 5419 5418 5417 5415 5415 5415 5413 5411 5410 5408 5410 5411 5410 5409 5405 5404 5404 5405 5406 5412 5411 5409 5416 5416 5417 5420 5422 5427 5431 5435 5438 5441 5444 5447 5449 5453 5457
5400 5399 5398 5398 5395 5396 5396 5393 5392 5390 5388 5390 5392 5392 5390 5388 5386 5384 5383 5384 5387 5389 5386 5388 5393 5394 5399 5404 5405 5406 5408 5411 5415 5419 5423 5426 5429 5433
5376 5377 5377 5377 5375 5375 5375 5373 5372 5370 5367 5367 5368 5369 5368 5366 5365 5364 5362 5360 5357 5364 5366 5359 5365 5364 5368 5378 5378 5381 5383 5384 5386 5389 5394 5399 5404 5409
5356 5359 5359 5359 5360 5359 5358 5355 5355 5354 5352 5352 5350 5348 5346 5345 5343 5342 5341 5341 5340 5345 5342 5338 5339 5336 5334 5341 5353 5356 5357 5361 5363 5367 5368 5371 5376 5383
5338 5340 5342 5341 5341 5343 5342 5339 5338 5338 5337 5335 5334 5333 5330 5327 5326 5326 5326 5325 5327 5330 5325 5319 5322 5318 5315 5325 5329 5331 5335 5339 5341 5345 5345 5346 5352 5357
5319 5321 5324 5326 5326 5327 5326 5323 5321 5316 5315 5313 5316 5318 5314 5314 5313 5309 5306 5307 5310 5312 5310 5304 5300 5299 5297 5301 5302 5308 5311 5320 5319 5321 5321 5322 5328 5333
5299 5300 5305 5308 5308 5308 5306 5302 5299 5297 5295 5297 5299 5298 5297 5294 5294 5288 5288 5285 5288 5296 5293 5287 5282 5274 5277 5280 5280 5288 5288 5284 5293 5293 5288 5295 5303 5311
5279 5280 5282 5284 5285 5286 5285 5281 5279 5278 5275 5275 5280 5281 5279 5276 5276 5269 5270 5269 5266 5272 5276 5264 5256 5251 5249 5250 5256 5266 5266 5262 5263 5264 5260 5269 5281 5287
5264 5268 5271 5271 5270 5272 5270 5268 5264 5269 5266 5262 5262 5264 5263 5256 5254 5253 5250 5248 5248 5249 5250 5239 5229 5226 5226 5234 5236 5245 5246 5246 5245 5242 5245 5250 5262 5265
5248 5252 5256 5257 5258 5256 5256 5257 5258 5256 5255 5252 5249 5247 5241 5237 5233 5234 5229 5226 5227 5227 5225 5218 5214 5216 5213 5220 5236 5229 5229 5232 5231 5230 5230 5237 5245 5250
5234 5237 5240 5243 5242 5243 5242 5242 5241 5240 5237 5235 5234 5230 5224 5217 5212 5212 5209 5208 5204 5206 5207 5208 5210 5207 5205 5210 5218 5224 5220 5222 5218 5222 5224 5227 5232 5235
5219 5221 5224 5227 5229 5229 5228 5226 5226 5224 5220 5219 5215 5211 5206 5202 5203 5202 5200 5201 5198 5197 5199 5204 5205 5203 5204 5201 5207 5215 5221 5214 5212 5213 5215 5215 5220 5222
5206 5208 5211 5213 5215 5215 5214 5212 5208 5207 5206 5203 5200 5199 5198 5196 5196 5194 5192 5192 5192 5194 5199 5202 5199 5194 5196 5197 5205 5208 5212 5210 5208 5210 5211 5212 5211 5212
5197 5198 5200 5200 5201 5200 5198 5197 5195 5196 5193 5192 5190 5193 5193 5192 5191 5190 5189 5188 5188 5190 5192 5194 5195 5195 5197 5197 5201 5204 5205 5205 5205 5205 5211 5213 5215 5217